Weather History for KCNM - December, 2013

Change the Weather History Date:

Saturday, December 28, 2013

  Actual Average Record
Temperature  
Mean Temperature 40 °F -  
Max Temperature 60 °F 58 °F 77 °F (1955)
Min Temperature 19 °F 30 °F 10 °F (1966)
Degree Days  
Heating Degree Days 26    
Moisture  
Dew Point 27 °F    
Average Humidity 69    
Maximum Humidity 100    
Minimum Humidity 25    
Precipitation  
Precipitation 0.00 in - - ()
Sea Level Pressure  
Sea Level Pressure 30.02 in    
Wind  
Wind Speed 6 mph (South)    
Max Wind Speed 18 mph    
Max Gust Speed 25 mph    
Visibility 8 miles    
Events Fog    
Averages and records for this station are not official NWS values.
T = Trace of Precipitation, MM = Missing Value Source: NWS Daily Summary

Daily Weather History Graph

Daily Weather History Graph

Search for Another Location

Airport or City:

Trip Planner

Search our weather history database for the weather conditions in past years. The results will help you decide how hot, cold, wet, or windy it might be!

Date:

Astronomy

Dec. 28, 2013 Rise Set
Actual Time 6:57 AM MST 5:00 PM MST
Civil Twilight 6:30 AM MST 5:27 PM MST
Nautical Twilight 5:59 AM MST 5:58 PM MST
Astronomical Twilight 5:29 AM MST 6:27 PM MST
Moon 2:44 AM MST (12/28) 1:46 PM MST (12/28)
Length of Visible Light 10h 57m
Length of Day
10h 02m
Waning Crescent, 18% of the Moon is Illuminated
Dec 28
Waning Crescent
Jan 1
New
Jan 7
First Quarter
Jan 15
Full
Jan 23
Last Quarter

Hourly Weather History & Observations

Time (MST) Temp. Windchill Dew Point Humidity Pressure Visibility Wind Dir Wind Speed Gust Speed Precip Events Conditions
12:53 AM 27.0 °F 20.5 °F 23.0 °F 85% 30.20 in 10.0 mi North 5.8 mph - N/A   Clear
1:53 AM 28.0 °F 24.2 °F 23.0 °F 81% 30.18 in 10.0 mi North 3.5 mph - N/A   Clear
2:53 AM 27.0 °F 21.6 °F 23.0 °F 85% 30.16 in 10.0 mi North 4.6 mph - N/A   Clear
3:53 AM 25.0 °F 20.7 °F 21.0 °F 85% 30.14 in 10.0 mi NW 3.5 mph - N/A   Clear
4:53 AM 25.0 °F 18.1 °F 21.0 °F 85% 30.14 in 10.0 mi North 5.8 mph - N/A   Clear
5:53 AM 23.0 °F - 21.0 °F 92% 30.15 in 10.0 mi Calm Calm - N/A   Clear
6:53 AM 19.9 °F - 17.1 °F 89% 30.17 in 10.0 mi Calm Calm - N/A   Clear
7:53 AM 27.0 °F - 23.0 °F 85% 30.17 in 10.0 mi Calm Calm - N/A   Partly Cloudy
8:06 AM 28.9 °F - 26.1 °F 89% 30.14 in 2.5 mi North - - N/A   Mostly Cloudy
8:09 AM 28.9 °F - 27.0 °F 92% 30.14 in 0.8 mi North - - N/A   Mostly Cloudy
8:19 AM 30.0 °F 25.2 °F 28.9 °F 96% 30.14 in 0.2 mi South 4.6 mph - N/A Fog Light Freezing Fog
8:53 AM 32.0 °F 27.5 °F 32.0 °F 100% 30.15 in 0.2 mi SSE 4.6 mph - N/A Fog Fog
9:41 AM 34.0 °F 28.8 °F 34.0 °F 100% 30.12 in 0.5 mi SSE 5.8 mph - N/A Fog Fog
9:53 AM 34.0 °F 28.8 °F 33.1 °F 96% 30.14 in 0.8 mi SSE 5.8 mph - N/A   Overcast
10:02 AM 35.1 °F 28.6 °F 34.0 °F 96% 30.12 in 1.5 mi SE 8.1 mph - N/A   Overcast
10:16 AM 34.0 °F 28.0 °F 34.0 °F 100% 30.11 in 3.0 mi SE 6.9 mph - N/A   Overcast
10:53 AM 36.0 °F 33.3 °F 33.1 °F 89% 30.09 in 10.0 mi Variable 3.5 mph - N/A   Mostly Cloudy
11:14 AM 39.0 °F 35.7 °F 34.0 °F 82% 30.07 in 10.0 mi ESE 4.6 mph - N/A   Scattered Clouds
11:53 AM 44.1 °F 40.8 °F 34.0 °F 68% 30.01 in 10.0 mi SSE 5.8 mph - N/A   Clear
12:53 PM 52.0 °F - 32.0 °F 47% 29.93 in 10.0 mi SSE 5.8 mph - N/A   Clear
1:53 PM 57.0 °F - 30.9 °F 37% 29.86 in 10.0 mi SSE 6.9 mph - N/A   Clear
2:53 PM 60.1 °F - 28.9 °F 31% 29.84 in 10.0 mi SE 8.1 mph - N/A   Clear
3:53 PM 60.1 °F - 24.1 °F 25% 29.82 in 10.0 mi WSW 15.0 mph 24.2 mph N/A   Clear
4:53 PM 55.0 °F - 26.1 °F 33% 29.83 in 10.0 mi SSW 11.5 mph - N/A   Clear
5:53 PM 54.0 °F - 28.0 °F 37% 29.82 in 10.0 mi SW 17.3 mph - N/A   Clear
6:53 PM 50.0 °F - 28.0 °F 43% 29.86 in 10.0 mi SSW 9.2 mph - N/A   Clear
7:53 PM 52.0 °F - 26.1 °F 37% 29.83 in 10.0 mi WSW 15.0 mph - N/A   Clear
8:53 PM 52.0 °F - 26.1 °F 37% 29.81 in 10.0 mi WSW 18.4 mph - N/A   Clear
9:53 PM 53.1 °F - 25.0 °F 34% 29.81 in 10.0 mi WSW 17.3 mph 25.3 mph N/A   Clear
10:53 PM 52.0 °F - 24.1 °F 34% 29.81 in 10.0 mi Variable 4.6 mph - N/A   Clear
11:53 PM 51.1 °F - 24.1 °F 35% 29.78 in 10.0 mi WSW 6.9 mph - N/A   Clear